This is the latest recevied weather packets stored in our database for station/object VO2AGO. If no packets are shown the sender has not sent any weather packets the latest 10 day(s).
| Time | Temp. | Humidity | Pressure | Rain* | Wind** | Luminosity | Snow |
|---|---|---|---|---|---|---|---|
| 1777827950 | 5.56° C | - | - | - | 0 m/s | 1961 W/m² | - |
| 1777827500 | 5.56° C | - | - | - | 0 m/s | 1701 W/m² | - |
| 1777827051 | 6.67° C | - | - | - | 0 m/s | 1343 W/m² | - |
| 1777826601 | 6.11° C | - | - | - | 0 m/s | 1685 W/m² | - |
| 1777826150 | 4.44° C | - | - | - | 0 m/s | 1845 W/m² | - |
| 1777825700 | 3.33° C | - | - | - | 0 m/s | 1479 W/m² | - |
| 1777825250 | 3.33° C | - | - | - | 0 m/s | 1249 W/m² | - |
| 1777824801 | 3.89° C | - | - | - | 0 m/s | 1047 W/m² | - |
| 1777824351 | 3.89° C | - | - | - | 0 m/s | 1095 W/m² | - |
| 1777823901 | 3.33° C | - | - | - | 0 m/s | 1252 W/m² | - |
| 1777823450 | 3.33° C | - | - | - | 0 m/s | 1150 W/m² | - |
| 1777823011 | 3.33° C | - | - | - | 0 m/s | 954 W/m² | - |
| 1777822550 | 3.89° C | - | - | - | 0 m/s | 966 W/m² | - |
| 1777822101 | 4.44° C | - | - | - | 0 m/s | 1264 W/m² | - |
| 1777821651 | 5.56° C | - | - | - | 0 m/s | 1112 W/m² | - |
| 1777821201 | 6.67° C | 98% | 101.3 hPa | 0 mm | 0 m/s | 1559 W/m² | - |
| 1777820750 | 6.11° C | - | - | - | 0 m/s | 1475 W/m² | - |
| 1777820300 | 6.67° C | - | - | - | 0 m/s | 1514 W/m² | - |
| 1777819850 | 3.89° C | - | - | - | 0 m/s | 1284 W/m² | - |
| 1777819400 | 4.44° C | - | - | - | 0 m/s | 1941 W/m² | - |
| 1777818950 | 4.44° C | - | - | - | 0 m/s | 1122 W/m² | - |
| 1777818501 | 5.56° C | - | - | - | 0 m/s | 1688 W/m² | - |
| 1777818051 | 5.56° C | - | - | - | 0 m/s | 1271 W/m² | - |
| 1777817600 | 6.11° C | - | - | - | 0 m/s | 1086 W/m² | - |
| 1777817150 | 5° C | - | - | - | 0 m/s | 1474 W/m² | - |
* Rain since midnight (hover to see other rain measurements)
** Current wind speed in m/s (hover to see current wind gust speed)